Theta_e
302 302 301 301 301 302 303 303 305 308 309 310 312 313 315 315 316 315 319 324 314 310 312 313 312 311 312 311 308 314 309 311 309 304 303 303 302 304 302 304 302 301 300 298 299 295 292 308 305 296 305 309 309 308
303 301 301 301 301 301 302 303 303 306 307 309 310 312 314 315 315 312 314 322 320 311 312 318 317 317 315 315 313 316 312 311 311 307 307 307 303 304 303 297 307 298 303 301 302 301 310 310 308 310 311 309 309 309
303 302 302 302 302 301 301 302 303 303 306 307 309 311 313 314 315 313 316 319 316 311 311 311 311 318 320 317 318 310 313 315 315 319 310 308 303 306 300 301 303 306 307 302 302 304 306 309 311 311 311 310 310 310
303 303 302 303 302 302 301 301 302 303 304 306 307 309 311 313 314 313 314 318 317 312 305 309 318 314 317 319 317 317 316 319 320 314 307 306 303 308 303 304 303 305 306 304 303 306 307 309 309 309 310 311 309 310
301 302 302 302 302 302 302 301 301 302 303 305 307 309 310 312 312 314 315 318 319 312 306 308 315 316 316 316 314 315 314 315 310 307 306 304 308 307 306 304 301 306 304 302 301 308 308 307 309 310 309 309 309 308
301 301 301 302 302 302 303 302 302 301 302 304 306 308 309 310 311 308 303 315 319 316 308 302 314 313 314 314 313 313 312 312 310 307 306 308 313 308 301 300 308 310 311 311 308 311 310 310 311 311 310 310 309 308
302 301 301 301 301 302 303 302 302 300 301 303 305 307 308 308 310 305 303 306 309 319 305 302 303 312 313 313 312 311 314 311 309 307 306 307 307 306 302 299 307 309 310 311 312 312 307 309 309 311 311 310 309 309
302 302 301 301 301 301 302 302 302 300 300 302 304 306 307 307 307 305 310 306 308 310 309 301 303 305 312 308 306 312 308 309 309 307 309 306 308 306 300 306 308 309 310 310 311 312 311 311 311 310 309 309 307 305
302 301 301 301 301 301 302 302 301 300 300 301 303 305 309 306 303 307 307 307 306 303 295 300 300 298 309 308 309 308 309 303 309 304 304 306 304 300 304 306 307 309 309 309 310 310 311 309 308 307 307 307 303 304
301 301 301 301 301 301 303 302 301 299 300 301 304 303 299 308 308 309 302 297 297 298 298 296 306 300 306 306 304 304 306 303 299 304 308 302 301 310 310 311 312 311 311 311 308 307 308 307 306 305 305 304 304 304
301 301 301 301 301 302 302 302 301 300 300 302 300 300 310 309 304 300 293 291 292 291 296 298 303 301 308 302 301 305 302 302 296 301 301 300 300 307 310 310 313 313 312 312 312 312 312 309 307 305 304 305 305 305
301 300 301 301 301 302 302 302 302 300 302 301 301 310 305 300 296 289 287 290 289 292 300 300 303 306 305 308 303 304 299 301 295 306 300 297 303 310 311 310 312 313 312 311 312 311 308 307 306 305 305 305 306 307
301 300 301 301 301 302 302 302 301 302 301 304 300 298 294 291 285 285 286 289 292 301 301 303 301 305 304 305 302 300 295 296 305 299 297 301 307 310 312 312 312 313 313 312 311 309 308 306 305 306 305 306 307 307
300 300 300 301 301 301 302 302 301 300 296 293 293 286 288 286 290 295 297 298 302 304 304 305 303 300 302 299 300 294 299 301 295 294 295 302 308 310 311 312 311 311 311 310 308 308 306 305 305 306 306 308 307 307
300 299 300 301 301 301 301 301 301 300 296 289 291 285 289 297 300 301 301 302 306 308 306 303 301 301 298 296 298 297 295 293 296 297 301 306 313 312 310 310 310 310 309 308 309 307 306 306 306 306 308 309 308 309
299 299 300 301 301 301 301 301 300 301 295 291 288 289 296 296 296 299 300 302 304 303 307 303 296 294 293 297 295 295 294 293 298 302 306 313 314 314 312 311 310 309 309 309 309 308 307 306 307 307 308 308 308 309
298 297 301 301 301 301 301 297 297 292 291 288 290 297 296 298 297 299 302 303 307 299 297 297 293 294 300 296 296 300 297 302 304 306 310 315 316 314 312 311 310 309 310 310 310 309 308 310 309 308 307 308 309 310
297 300 301 301 300 298 297 296 293 290 286 289 290 294 298 299 297 300 303 306 303 298 298 296 300 297 296 295 297 302 305 306 308 310 310 314 316 314 312 311 310 310 310 310 310 310 309 309 308 306 307 309 309 309
299 300 300 300 300 297 291 293 294 287 290 294 295 297 298 300 300 303 303 305 304 302 299 297 295 296 298 302 303 306 306 306 307 309 312 315 315 313 312 311 310 310 310 310 311 310 310 309 307 306 306 307 306 307
299 300 300 300 300 292 290 293 299 292 290 294 296 296 295 296 301 303 302 303 301 297 292 290 295 302 302 305 307 308 308 310 310 309 310 311 312 312 312 310 309 311 310 310 309 300 305 306 307 308 309 306 306 305
296 299 298 299 295 291 290 293 292 293 294 293 296 296 296 300 299 298 299 303 297 293 291 297 300 304 305 307 309 310 310 311 310 310 309 308 310 310 309 309 311 309 306 306 305 303 302 304 308 309 310 309 307 305
298 299 296 295 291 292 292 295 294 298 294 293 294 296 294 295 296 297 302 296 293 295 299 303 304 302 302 304 307 310 312 312 312 308 303 303 306 307 307 308 307 306 306 307 307 307 307 309 309 310 309 306 305 305
298 297 294 294 288 289 288 298 291 292 288 289 290 290 291 295 298 302 295 296 294 299 302 304 304 305 305 307 309 310 311 311 309 308 307 308 308 309 308 307 308 307 306 307 307 308 308 297 304 306 307 308 304 302
298 292 289 289 288 286 292 290 292 290 290 288 288 288 289 292 298 295 291 294 297 299 300 303 303 302 303 304 303 305 307 309 308 308 309 308 306 306 307 307 307 308 309 309 308 309 309 309 301 306 306 304 303 302
287 287 289 285 291 288 287 287 289 288 286 289 287 289 290 294 292 292 292 296 298 298 299 302 302 302 301 302 303 304 310 306 306 306 308 308 307 307 306 306 306 308 308 306 306 306 307 310 308 305 303 303 301 301
283 289 286 288 288 287 287 285 286 287 288 288 288 293 295 293 290 288 294 297 299 301 300 299 299 300 302 304 304 304 306 309 309 307 307 308 307 306 304 303 303 304 308 309 307 307 307 307 305 303 301 299 291 297
283 287 292 296 293 292 291 293 293 291 287 287 290 290 290 285 287 293 300 302 302 303 305 304 304 302 303 305 308 308 310 310 310 309 309 308 308 309 308 305 304 309 313 313 309 309 307 306 303 302 302 301 301 300
289 291 287 291 292 293 289 290 289 288 290 297 295 289 288 289 290 297 299 303 305 305 306 307 309 306 305 307 307 307 307 308 308 308 307 307 308 308 309 310 312 294 311 310 308 309 308 305 304 302 302 300 302 304
291 295 294 289 291 291 291 290 290 292 295 296 293 291 291 295 297 297 301 305 306 305 304 304 306 308 306 306 308 307 306 304 302 301 301 302 303 306 310 311 311 311 310 309 288 296 306 306 304 304 302 300 303 301
291 296 292 290 288 286 290 293 292 295 298 298 297 296 294 295 299 302 303 303 303 304 304 305 306 305 304 303 303 304 305 307 306 304 302 303 304 308 310 310 312 308 308 308 306 304 290 301 296 303 302 301 300 299
298 296 290 290 288 291 293 296 296 296 296 295 297 294 293 297 300 303 303 305 305 304 304 303 303 305 304 303 304 303 303 308 309 309 308 309 310 310 312 312 313 310 308 306 305 304 303 303 302 300 300 300 299 297
294 292 290 288 289 294 296 295 295 293 292 292 292 296 299 297 293 298 303 305 305 303 294 303 305 305 307 308 308 308 294 307 309 310 310 311 312 312 314 313 314 310 307 306 305 303 304 303 301 300 300 299 300 300
293 294 294 292 292 291 295 294 292 291 293 291 289 291 293 292 289 296 305 306 304 304 304 305 306 307 308 308 308 307 297 310 300 288 289 288 287 296 311 314 313 310 307 305 304 303 303 302 301 301 301 300 299 301
Wind_Speed
9 8 9 10 10 11 11 12 12 12 12 12 11 10 9 9 6 7 3 1 6 8 9 3 7 9 6 6 9 8 7 8 8 9 10 9 6 8 7 10 6 9 6 6 7 12 13 11 10 4 4 10 12 13
10 9 10 10 10 10 11 11 12 13 12 12 12 11 10 9 7 5 8 4 3 7 10 6 9 11 12 10 9 5 4 3 5 5 6 5 5 5 7 10 8 7 10 5 5 2 4 5 5 3 8 12 13 13
12 13 10 10 10 10 11 12 12 12 13 12 12 12 11 10 8 9 9 6 4 8 11 14 16 11 13 11 7 6 7 3 3 5 7 5 6 5 7 9 12 11 8 6 6 5 6 9 9 8 9 9 10 11
12 10 10 10 10 9 11 12 11 12 12 13 12 12 11 9 9 11 8 6 7 7 7 4 4 7 4 10 13 10 6 2 4 5 7 7 9 4 9 9 8 4 7 8 12 13 11 10 6 5 6 8 10 11
12 12 12 12 12 11 11 11 12 11 12 13 13 13 11 10 9 8 8 9 8 8 6 5 1 11 9 8 10 13 9 8 7 7 7 9 10 7 8 7 11 11 12 10 8 6 3 4 2 4 6 9 10 11
14 13 13 13 13 14 13 11 10 10 12 12 13 13 10 9 7 2 2 10 11 8 6 6 3 8 8 9 10 12 10 9 9 9 8 10 5 3 7 10 13 11 9 9 9 3 4 3 3 7 7 8 10 11
15 14 14 14 14 13 14 13 10 9 12 12 12 11 9 7 3 3 2 5 9 7 4 6 7 10 9 9 8 7 11 8 8 9 10 10 6 6 11 14 12 6 8 9 8 6 6 8 6 3 6 7 7 11
16 15 15 14 14 13 13 12 11 7 11 11 12 11 10 8 7 5 5 3 10 3 4 6 5 6 9 7 7 7 7 9 8 9 7 8 6 6 8 10 14 13 10 11 11 9 8 3 3 6 4 7 10 11
14 14 15 15 14 14 13 13 12 7 9 11 12 14 5 5 4 1 7 8 3 0 3 6 11 8 9 8 7 5 5 7 6 8 12 8 11 11 9 12 13 13 13 13 12 10 10 8 7 3 7 9 11 11
14 14 15 15 14 14 13 12 11 7 8 10 8 3 4 5 22 15 3 3 2 3 3 5 9 7 8 9 8 6 5 8 6 10 9 15 15 16 17 13 11 11 14 12 13 11 9 8 5 3 6 7 9 11
15 15 15 14 13 12 12 13 13 8 7 6 6 5 5 16 2 3 3 3 3 4 6 6 12 5 6 8 7 6 3 4 5 8 7 5 9 16 21 20 13 13 14 12 9 9 7 2 2 4 6 7 9 10
16 15 15 15 13 12 13 14 11 8 3 6 4 1 2 3 2 3 5 4 6 8 10 10 16 13 5 4 4 5 3 4 7 5 5 7 9 13 16 20 18 14 12 11 11 8 6 4 2 2 6 7 8 8
16 15 14 14 13 11 14 12 12 11 6 4 4 5 4 2 5 6 9 6 7 7 6 11 12 6 3 3 3 4 6 8 3 6 6 5 7 10 8 12 19 17 13 12 11 8 6 4 4 4 6 7 8 8
15 14 13 13 13 13 14 11 12 6 2 4 6 6 6 6 8 9 11 2 7 5 10 13 10 5 5 6 4 5 8 4 8 9 9 5 9 10 10 11 14 14 14 13 10 8 6 7 3 2 4 6 7 8
14 13 12 14 12 14 13 11 12 7 3 5 5 7 9 9 8 4 4 4 7 6 8 8 5 4 3 5 5 7 6 9 8 8 5 10 12 13 14 14 14 14 12 11 9 8 6 5 4 5 5 6 7 6
12 8 12 11 15 15 12 12 8 6 4 3 5 5 7 7 11 8 6 8 1 6 10 5 4 5 5 5 10 12 9 7 6 5 8 10 13 14 13 14 13 12 11 9 7 6 5 4 4 5 6 6 6 6
14 6 12 16 16 14 14 6 6 7 5 6 6 9 9 7 7 9 9 6 3 3 3 3 9 9 6 8 12 11 14 5 5 9 7 10 13 14 14 14 12 11 10 8 6 6 4 2 3 6 8 6 6 6
7 7 13 17 14 10 6 6 5 6 8 7 7 10 9 7 5 4 4 2 4 4 3 2 4 12 8 10 11 11 7 7 5 6 9 11 13 14 13 13 12 10 9 7 6 5 3 5 6 6 4 3 5 8
9 9 16 17 14 5 6 7 4 4 9 6 8 9 7 7 6 8 6 4 4 2 2 3 5 7 9 4 7 9 9 8 8 8 10 13 14 14 14 12 11 9 8 6 5 5 3 4 4 5 5 4 5 6
5 11 14 16 14 3 5 4 5 5 5 6 8 8 5 9 9 10 8 7 5 3 3 4 5 4 5 5 4 6 7 8 10 12 12 11 11 13 12 10 8 9 6 5 5 2 5 5 5 4 2 6 5 7
10 10 6 10 6 2 4 3 5 6 6 6 5 7 7 11 8 6 6 5 4 3 4 7 8 2 9 10 3 5 6 10 11 12 12 12 11 11 10 7 7 6 5 5 4 7 4 4 2 3 1 1 6 4
7 12 3 4 4 6 5 5 5 1 4 2 4 5 7 10 7 6 5 4 4 4 5 7 4 3 2 5 1 4 7 11 11 10 11 12 11 10 9 8 7 6 5 3 2 2 2 1 4 2 2 7 1 3
13 6 4 5 4 6 6 2 6 6 5 3 1 5 4 5 4 7 4 5 4 4 4 3 3 3 9 7 6 7 8 10 10 11 11 9 9 8 6 6 5 4 3 2 3 1 3 6 4 5 7 2 1 1
8 3 5 6 7 6 4 5 5 4 3 5 4 4 4 3 5 4 3 0 0 2 2 6 4 5 5 7 8 8 8 8 9 10 10 9 8 6 5 5 4 3 2 1 3 2 2 2 5 5 4 2 3 3
3 5 5 6 6 6 6 6 7 7 7 5 2 3 4 5 6 6 5 5 6 3 2 5 5 3 6 8 7 7 5 7 8 8 7 7 7 8 6 4 4 2 4 5 5 4 4 2 2 7 6 4 3 2
5 8 6 6 7 6 5 6 6 7 4 4 4 3 4 3 5 5 3 7 5 8 4 3 2 2 2 4 4 5 8 7 8 7 6 6 5 6 6 6 5 7 5 3 4 3 4 2 7 9 8 8 7 6
5 8 6 6 5 6 4 6 6 4 2 1 5 4 0 1 3 4 3 4 4 5 10 9 7 6 6 5 6 8 8 5 3 4 7 5 5 3 2 4 3 7 5 1 5 4 2 5 7 8 7 7 6 4
6 5 8 9 6 3 4 4 4 4 2 0 3 7 5 2 5 4 2 1 2 3 3 7 9 6 6 6 9 7 6 7 6 4 5 4 4 4 4 7 7 9 6 7 4 4 3 4 9 9 9 9 6 4
5 3 4 6 5 4 5 7 5 4 5 4 3 4 4 4 2 3 1 1 6 6 6 7 7 7 3 2 7 7 6 7 9 9 8 7 6 5 6 7 5 4 6 7 12 10 10 9 9 8 9 7 6 2
4 4 1 6 5 4 4 4 3 4 5 6 3 3 3 1 3 4 4 3 4 3 3 8 8 8 9 8 7 7 6 4 6 6 6 3 5 6 8 5 3 8 6 5 9 11 9 11 7 6 6 5 4 6
2 3 4 3 3 2 0 2 4 5 4 4 6 6 4 2 4 3 5 5 3 4 5 7 6 3 4 7 7 7 6 4 6 7 8 4 2 3 7 6 5 8 7 8 9 9 10 7 5 7 8 8 9 7
4 5 1 4 3 3 5 2 3 3 3 2 3 3 2 3 3 2 5 6 3 6 4 5 6 7 6 5 6 7 5 8 6 6 7 6 7 4 3 6 8 8 9 8 12 11 9 9 7 8 8 9 6 11
3 4 5 4 3 4 3 3 3 3 3 3 3 2 1 2 2 1 2 4 5 4 4 5 5 5 6 7 6 4 1 11 10 7 7 6 6 8 1 8 9 9 12 10 13 12 11 9 7 7 9 7 8 13
Wind_Direction
269 274 290 298 304 310 325 330 327 329 331 329 315 302 294 281 292 297 333 106 294 286 282 274 271 278 246 247 253 118 175 203 202 241 261 260 247 264 238 267 275 218 214 253 248 264 273 115 134 201 283 319 302 310
251 250 276 282 289 298 305 321 323 325 325 326 325 309 285 273 262 271 272 147 269 261 300 329 285 293 288 314 310 163 296 318 238 236 227 289 261 250 266 270 161 254 244 278 189 266 113 194 248 282 282 303 309 312
270 251 246 246 267 286 294 301 317 316 323 323 323 322 299 273 250 233 291 319 244 259 265 240 237 239 217 237 268 281 205 288 222 341 312 296 269 283 260 246 258 195 238 241 268 264 277 227 246 270 278 294 317 307
277 271 285 284 248 257 279 288 299 313 311 317 315 317 315 289 252 222 250 256 268 292 283 227 123 216 215 233 219 232 296 281 297 246 254 259 261 229 260 293 275 309 154 234 255 263 257 245 256 308 304 308 299 309
266 267 272 274 285 273 257 269 285 303 310 310 314 313 307 307 273 235 248 262 272 280 310 301 202 215 187 210 221 219 219 237 236 223 233 245 257 263 252 273 267 247 234 245 258 324 277 260 304 288 290 298 317 324
262 261 262 265 270 270 275 245 263 289 306 306 310 313 326 327 294 131 245 229 226 236 276 256 171 182 189 208 215 211 211 225 244 250 248 249 127 255 262 240 253 249 243 227 250 262 225 279 291 283 293 315 328 329
253 257 257 259 262 268 279 246 243 276 290 304 307 317 313 324 253 217 251 327 315 183 238 235 235 175 197 195 198 203 210 223 237 237 240 255 214 181 254 257 254 234 236 216 225 184 225 230 249 340 312 318 315 307
249 249 253 254 258 262 274 245 240 262 280 300 302 311 305 294 299 255 215 263 321 182 239 250 232 168 192 196 190 207 204 220 218 246 226 238 189 221 253 246 246 246 227 208 205 200 249 288 261 259 288 303 307 322
242 244 249 249 255 259 264 240 233 249 278 289 296 290 273 205 214 169 116 101 49 195 208 248 228 199 161 223 208 165 237 217 231 220 237 230 227 222 232 249 243 219 216 204 200 197 217 231 254 298 297 325 328 328
245 245 247 245 251 262 247 227 225 239 266 279 265 211 232 186 118 132 65 119 209 202 214 257 243 190 201 187 178 194 185 233 210 223 236 230 241 245 233 256 255 199 201 200 199 194 217 233 249 274 326 335 336 328
243 244 242 241 249 258 224 210 218 236 234 210 209 226 68 128 154 166 157 178 183 225 207 209 252 185 218 191 199 207 216 244 244 215 204 226 243 231 228 224 225 203 196 199 195 212 203 236 326 319 324 328 326 334
235 237 236 237 244 247 211 204 213 214 288 340 304 78 131 218 196 166 192 182 213 219 171 203 201 222 162 169 183 203 227 250 242 118 220 234 247 218 217 209 206 194 191 188 191 189 179 170 174 312 321 330 337 335
225 232 234 231 233 231 205 204 202 253 318 281 226 208 184 163 200 220 193 196 210 195 159 176 184 153 129 187 160 213 218 234 104 219 230 236 250 203 199 193 185 184 186 177 181 176 174 191 162 225 323 325 336 326
216 226 234 225 225 222 198 195 206 200 153 249 209 205 215 179 230 197 234 171 189 221 188 183 149 148 155 160 146 205 237 209 227 205 227 210 209 170 168 166 162 166 169 171 172 173 192 203 226 268 272 331 328 325
210 220 230 223 222 198 189 194 184 202 233 225 226 223 213 234 239 255 248 230 225 218 200 149 99 110 113 140 219 229 207 227 216 220 212 220 168 168 168 158 155 155 163 166 167 180 200 226 242 299 326 343 324 322
201 216 224 212 192 188 181 175 191 196 240 247 228 261 246 266 237 207 250 239 184 295 179 114 139 162 179 198 199 208 216 215 202 161 225 134 156 161 162 158 153 158 162 163 171 181 203 237 275 334 325 313 318 320
190 233 157 178 178 174 169 194 198 190 232 224 227 234 257 299 282 267 217 208 121 345 180 156 190 182 170 214 215 214 218 212 153 198 133 156 159 158 156 152 156 158 161 165 176 183 217 257 276 288 295 339 344 310
201 175 167 165 159 156 183 216 206 204 223 227 243 231 232 222 258 266 264 186 183 174 265 264 308 207 199 216 202 222 195 130 152 144 144 149 154 157 157 153 156 157 164 176 189 209 259 275 275 279 1 294 294 266
188 181 173 172 182 168 197 203 208 242 220 218 240 273 278 256 213 254 232 202 204 42 319 275 246 240 223 262 246 178 144 149 152 146 140 155 156 157 150 154 151 159 170 186 197 229 284 24 333 320 320 319 329 348
125 150 161 178 199 183 240 207 190 232 241 209 227 225 235 248 242 204 226 208 176 171 182 248 236 304 339 306 314 159 167 159 155 145 149 152 154 144 151 153 165 154 182 180 203 228 239 213 209 194 24 14 324 11
184 143 144 171 197 235 280 222 222 235 224 229 249 242 227 227 232 205 203 178 178 180 220 226 259 302 303 310 229 170 175 176 171 164 152 150 154 158 155 166 147 180 200 213 232 132 208 243 348 17 310 23 42 48
132 143 118 168 213 205 245 258 262 209 194 234 273 210 248 226 208 199 156 174 219 215 214 232 209 290 260 294 206 158 176 182 169 139 141 146 162 158 172 162 185 195 193 202 230 262 304 30 51 306 307 105 40 34
143 140 195 173 206 213 265 237 236 202 232 185 261 204 219 230 176 151 214 201 214 216 247 238 168 283 259 201 168 150 178 151 146 146 146 171 157 162 162 171 178 205 214 185 146 299 52 39 117 282 112 122 71 8
113 206 196 179 211 209 202 224 209 182 230 202 210 187 188 207 169 209 202 290 97 213 262 193 141 276 186 197 156 157 181 173 139 154 175 157 157 150 174 169 174 174 219 282 112 170 245 185 82 224 100 1 37 28
183 205 208 232 230 218 216 202 190 191 225 185 228 180 188 187 200 189 157 175 187 146 319 153 165 294 202 171 161 176 182 161 168 166 157 161 165 154 162 168 156 173 147 165 183 229 255 225 187 75 79 46 17 27
231 202 196 224 198 216 222 253 221 207 182 204 146 241 198 199 149 153 121 159 172 144 152 109 187 262 216 254 253 194 199 204 159 159 171 177 157 161 171 178 187 164 182 238 294 258 247 94 115 115 111 102 91 112
257 216 204 232 261 165 224 255 256 140 275 226 130 198 157 45 115 85 108 86 98 127 155 172 203 184 179 211 237 269 212 124 153 146 154 166 151 146 133 162 164 74 82 9 264 250 216 138 121 129 126 124 135 150
249 243 203 193 213 206 256 210 185 192 168 68 241 195 169 51 65 57 73 121 136 211 190 163 163 210 233 192 191 158 141 121 118 138 127 147 122 113 90 82 69 30 68 28 30 109 160 128 120 138 142 147 164 193
247 218 191 185 141 76 24 11 40 30 359 324 356 50 59 53 24 324 24 168 185 177 169 165 175 133 88 234 184 172 154 166 161 159 168 155 157 153 126 113 164 163 113 103 51 38 72 98 112 120 141 154 185 225
85 12 92 50 32 60 37 2 51 21 38 34 49 90 75 41 21 339 344 21 93 118 119 144 159 158 169 169 146 148 170 175 161 176 196 157 117 134 113 143 142 108 116 134 111 108 108 114 102 143 151 164 201 195
25 85 82 62 72 46 340 89 85 58 53 358 67 90 93 128 120 56 36 351 13 68 71 82 82 57 125 143 146 163 143 108 64 39 7 18 114 119 127 128 153 132 146 132 123 129 125 146 136 127 154 185 182 213
17 18 78 106 123 155 169 188 103 93 78 53 33 43 43 80 45 70 354 334 86 92 21 68 80 59 59 66 78 73 37 81 79 56 23 15 7 36 120 145 166 154 150 148 125 156 141 135 144 158 185 197 177 121
139 122 122 118 153 188 139 94 74 68 49 80 69 24 41 51 72 328 88 14 14 30 79 82 96 81 56 43 59 90 10 78 82 79 72 51 27 8 188 149 162 169 167 141 133 136 144 152 171 199 201 147 138 122